Regional Weather Roundup
Issued by NWS

Home | Current Version | Previous Version | Text Only | Print | Product List | Glossary Off
Versions: 1 2 3 4 5 6 7 8 9 10 11 12 13 14 15 16 17 18 19 20 21 22 23 24 25 26 27 28 29 30 31 32 33 34 35 36 37 38 39 40 41 42 43 44 45 46 47 48 49 50

000
ASUS43 KMKX 241011
RWRWI

WISCONSIN REGIONAL WEATHER ROUNDUP
NATIONAL WEATHER SERVICE MILWAUKEE/SULLIVAN WI
500 AM CDT SUN JUL 24 2016

NOTE: "FAIR" INDICATES FEW OR NO CLOUDS BELOW 12,000 FEET WITH NO
SIGNIFICANT WEATHER AND/OR OBSTRUCTIONS TO VISIBILITY.

WIZ001-002-006>008-014>016-023>028-241100-
NORTHWEST WISCONSIN

CITY           SKY/WX    TMP DP  RH WIND       PRES   REMARKS
SUPERIOR ARPT  PTCLDY    59  59 100 S5        29.73F FOG
ASHLAND        CLOUDY    70  67  90 W9        29.73S
HAYWARD        CLOUDY    67  64  90 CALM      29.73F
SIREN          CLOUDY    66  64  94 SW5       29.76R
CUMBERLAND     CLOUDY    64  63  94 S8        29.79R
RICE LAKE      CLOUDY    67  65  92 CALM      29.81R
CHETEK         CLOUDY    68  67  97 MISG      29.80F
LADYSMITH      TSTM      69  67  94 E12       29.78F
EAU CLAIRE     CLOUDY    71  70  96 N5        29.78S
MENOMONIE      CLOUDY    71  71  99 N9        29.79R
NEW RICHMOND   CLOUDY    69  68  98 E3        29.79F
OSCEOLA        CLOUDY    68  68 100 SE7       29.79F
$$

WIZ003>005-009-010-017-018-241100-
NORTH CENTRAL WISCONSIN

CITY           SKY/WX    TMP DP  RH WIND       PRES   REMARKS
MANITOWISH WTR CLOUDY    68  68 100 SW7       29.84R
ARBOR VITAE    CLOUDY    72  70  95 CALM      29.84S
WOODRUFF       CLOUDY    72  70  95 CALM      29.84S
RHINELANDER    CLOUDY    70  67  90 SW7       29.85S
EAGLE RIVER    CLOUDY    69  69 100 SW6       29.84S
LAND O LAKES   CLOUDY    69  68  98 SW3       29.84F
PHILLIPS       CLOUDY    68  68 100 NW6       29.86R
TOMAHAWK       CLOUDY    68  66  96 CALM      29.84S FOG
MEDFORD        FOG       68  68 100 CALM      29.83R VSB 1
MERRILL        CLOUDY    69  69 100 CALM      29.84S
$$

WIZ029-030-035-036-043>047-241100-
CENTRAL WISCONSIN

CITY           SKY/WX    TMP DP  RH WIND       PRES   REMARKS
WAUSAU         CLOUDY    70  69  97 S8        29.81F
MOSINEE        CLOUDY    70  70 100 S9        29.82F
MARSHFIELD     CLOUDY    71  68  90 S7        29.80F
STEVENS POINT  CLOUDY    69  69  99 CALM      29.84S
WAUPACA        CLOUDY    73  73  98 CALM      29.83F
WAUTOMA        CLOUDY    71  70  96 S6        29.82F
WISC RAPIDS    CLOUDY    72  69  90 CALM      29.83F
CAMP DOUGLAS   CLOUDY    73  72  94 SE3       29.80F
$$

WIZ011>013-019>022-031-037>040-048>050-241100-
NORTHEAST WISCONSIN

CITY           SKY/WX    TMP DP  RH WIND       PRES   REMARKS
ANTIGO         CLOUDY    68  68 100 CALM      29.84F
SHAWANO        CLOUDY    73  70  91 SW3       29.83F
OCONTO         CLOUDY   N/A N/A N/A CALM      29.82S
STURGEON BAY   CLOUDY    69  68  96 S7        29.84F
GREEN BAY      CLOUDY    72  72 100 S8        29.83F
MANITOWOC      LGT RAIN  70  67  90 MISG      29.85F
APPLETON       CLOUDY    70  70 100 S8        29.82F
CLINTONVILLE   LGT RAIN  70  70 100 S6        29.82F
OSHKOSH        CLOUDY    72  69  90 S5        29.84F
$$

WIZ032>034-041-042-053>061-241100-
SOUTHWEST WISCONSIN

CITY           SKY/WX    TMP DP  RH WIND       PRES   REMARKS
LA CROSSE      PTCLDY    76  73  91 S10       29.76F
SPARTA         PTCLDY    73  72  98 CALM      29.79F
VIROQUA        MOCLDY    74  74 100 S7        29.83S
BOSCOBEL       CLOUDY    78  75  90 S6        29.81F HX  81
PRAIRIE DU CHI CLOUDY    79  75  87 CALM      29.80S HX  83
PLATTEVILLE    CLEAR     74  74 100 S8        29.85F
$$

WIZ056-057-062-063-064-067-068-241100-
SOUTH CENTRAL WISCONSIN

CITY           SKY/WX    TMP DP  RH WIND       PRES   REMARKS
REEDSBURG      CLOUDY    73  73 100 S5        29.82F
BARABOO/DELLS  CLOUDY    73  70  90 S10       29.82F
LONE ROCK      CLOUDY    74  71  91 VRB5      29.83F
MINERAL POINT  CLOUDY    72  72 100 SE3       29.86F
MADISON        PTCLDY    72  70  93 S7        29.84F
MIDDLETON      PTCLDY    74  72  95 SW5       29.85F
WATERTOWN      PTCLDY    70  70 100 SW7       29.85F
MONROE         CLEAR     72  70  94 S13       29.86F
JANESVILLE     CLEAR     73  72  94 S7        29.86F
$$

WIZ051-052-058>065-066-070>072-241100-
SOUTHEAST WISCONSIN

CITY           SKY/WX    TMP DP  RH WIND       PRES   REMARKS
MILWAUKEE      PTCLDY    73  69  87 SW12      29.85F
WAUKESHA       CLEAR     68  68 100 S6        29.86F
MILWAUKEE/TIMM CLEAR     70  64  83 S3        29.86F
RACINE         CLOUDY    72  68  87 S8        29.88F
BURLINGTON     PTCLDY    70  69  97 S7        29.87F
KENOSHA        CLOUDY    71  69  93 S6        29.88F
FOND DU LAC    CLOUDY    73  69  87 SE3       29.85R
SHEBOYGAN      TSTM      71  68  90 E9        29.90R
WEST BEND      MOCLDY    70  68  94 S5        29.85S
JUNEAU         CLOUDY    69  68  96 S8        29.86F
$$

LSZ147-162-241100-
LAKE SUPERIOR

STATION/POSITION TIME  TEMP    WIND        PRES    WAVE
                       AIR SEA DIR/SP/G            HT/PER
                 (UTC) (F)     (DEG/KT/KT) (MB)    (FT/S)
W MID LAKE BUOY  0950   62 57  180/  8/ 10 1006.3F   1/ 4
DEVILS ISLAND    1000   65     320/  6/  8 1006.3R
PORT WING        0900   68     320/ 21     1007.5R
SAXON HARBOR     0900   73     210/  8/ 12 1007.5F
$$

LMZ867-665-643>646-241100-
LAKE MICHIGAN

STATION/POSITION TIME  TEMP    WIND        PRES    WAVE
                       AIR SEA DIR/SP/G            HT/PER
                 (UTC) (F)     (DEG/KT/KT) (MB)    (FT/S)
CHAMBERS ISLAND  0900   72     180/  3/  8 1010.2F
S GREEN BAY BUOY 0900   74 74  190/ 14/ 16   N/A
N MID LAKE BUOY  0950   71 70  180/ 14/ 19 1009.8F   0
NORTHPORT PIER   0900   71     170/  4/ 10 1010.5F
KEWAUNEE LAKESHO 0900   63      80/  3/  4 1010.1F
SHEBOYGAN LAKESH 1000   69      80/ 12/ 13 1012.2F
PORT WASHINGTON  0900   66      80/  2/  5 1011.9F
MILWAUKEE LAKESH 0910   72     210/ 11/ 12   N/A
S MID LAKE BUOY  0950   72 72  150/ 16/ 19 1010.9F   2/ 3
KENOSHA   LAKESH 1000   71     190/  8/  9 1011.2F
$$

TC  - TEMPERATURE IN CELSIUS
VSB - VISIBILITY IN STATUTE MILES
WCI - WIND CHILL INDEX
HX  - HEAT INDEX





USA.gov is the U.S. government's official web portal to all federal, state and local government web resources and services.